Tracking 20943 objects as of 16-Jul-2020
HD Live streaming from Space Station
objects crossing your sky now

ORBCOMM FM 38

Track ORBCOMM FM 38 now!
10-day predictions
ORBCOMM FM 38 is classified as:


NORAD ID: 33060
Int'l Code: 2008-031A
Perigee: 651.6 km
Apogee: 661.5 km
Inclination: 48.4 °
Period: 97.7 minutes
Semi major axis: 7027 km
RCS: 1.1405 m2 (large)
Launch date: June 19, 2008
Source: ORBCOMM (ORB)
Launch site: KAPUSTIN YAR MISSILE AND SPACE COMPLEX (KYMTR)

This spacecraft is one of the 5 ORBCOMM satellites launched on Jun 19, 2008 designed to replenish the company's aging constellation.
aabbcc
Your satellite tracking list
Your tracking list is empty




NASA's NSSDC Master Catalog

Two Line Element Set (TLE):
1 33060U 08031A   20197.94866378 -.00000080 +00000-0 +18610-4 0  9993
2 33060 048.4424 165.4354 0007100 288.4511 071.5629 14.73657543649302
Source of the keplerian elements: AFSPC